Regional Weather Roundup
Issued by NWS

Home | Current Version | Previous Version | Graphics & Text | Print | Product List | Glossary On
Versions: 1 2 3 4 5 6 7 8 9 10 11 12 13 14 15 16 17 18 19 20 21 22 23 24 25 26 27 28 29 30 31 32 33 34 35 36 37 38 39 40 41 42 43 44 45 46 47 48 49 50
000
ASUS43 KIND 071709
RWRIN

WEATHER ROUNDUP FOR INDIANA
NATIONAL WEATHER SERVICE INDIANAPOLIS IN
100 PM EDT TUE JUL 07 2015

NOTE: "FAIR" INDICATES FEW OR NO CLOUDS BELOW 12,000 FEET WITH NO
SIGNIFICANT WEATHER AND/OR OBSTRUCTIONS TO VISIBILITY.

* - STATION DOES NOT REPORT WEATHER SUCH AS PRECIPITATION OR FOG.

+ - STATION NOT QUALITY CONTROLLED BY THE NATIONAL WEATHER SERVICE.
    USE DATA WITH CAUTION...ESPECIALLY DEWPOINT AND RELATIVE
    HUMIDITY OBSERVATIONS.

INZ001>003-010>013-019-020-071800-
NORTHWEST INDIANA

CITY           SKY/WX    TMP DP  RH WIND       PRES   REMARKS
GARY /AIRPORT/ CLOUDY    63  54  72 N16G32    30.01R
KNOX *+        CLOUDY    61  61 100 N13G18    29.95S
LA PORTE +     CLOUDY    66  58  75 N15G24    29.98R
MICHIGAN CITY+ CLOUDY    63  59  88 N10G21    29.99R
MONTICELLO +   LGT RAIN  64  63  98 N13       29.93S
RENSSELAER +   CLOUDY    63  61  94 N12       29.97R
VALPARAISO     PTSUNNY   64  56  75 N9G23     29.98R

$$

LMZ046-743>745-071800-
SOUTHERN LAKE MICHIGAN

STATION/POSITION TIME  TEMP    WIND        PRES    WAVE
                       AIR SEA DIR/SP/G            HT
                 (UTC) (F)     (DEG/KT/KT) (MB)    (FT)
BURNS HARBOR     1700   59     360/ 19/ 23 1016.3R
MICHIGAN CITY    1700   59     340/ 22/ 26   N/A
5NW MICH CITY    1700   59 65   10/ 17/ 21   N/A     7

$$

INZ004-005-014>016-021>024-071800-
NORTH CENTRAL INDIANA

CITY           SKY/WX    TMP DP  RH WIND       PRES   REMARKS
ELKHART        CLOUDY    64  63  94 N7        29.94S
GOSHEN         LGT RAIN  65  62  90 NW12      29.92S
LOGANSPORT +   LGT RAIN  64  61  88 N12       29.94R
PERU/GRISSOM   DRIZZLE   67  65  94 N12       29.91R
ROCHESTER +    LGT RAIN  64  64 100 NW12      29.94R
SOUTH BEND     CLOUDY    66  60  81 N18       29.95S
WARSAW +       LGT RAIN  63  63 100 NW8       29.93S

$$

INZ006>009-017-018-025>027-071800-
NORTHEAST INDIANA

CITY           SKY/WX    TMP DP  RH WIND       PRES   REMARKS
ANGOLA *+      CLOUDY    70  63  78 NW12      29.91R
AUBURN +       DRIZZLE   73  70  88 W5        29.90F
FORT WAYNE     CLOUDY    75  71  87 W8        29.91S
HUNTINGTON +   LGT RAIN  74  72  93 SW3       29.90F

$$

INZ028-029-035-036-043>045-051>053-071800-
WEST CENTRAL INDIANA

CITY           SKY/WX    TMP DP  RH WIND       PRES   REMARKS
CRAWFORDSVL +  LGT RAIN  71  70  96 CALM      29.91S
GREENCASTLE +  HVY RAIN  70  66  88 CALM      29.92S VSB 1
LAFAYETTE      CLOUDY    65  62  90 N12       29.93R FOG
TERRE HAUTE    CLOUDY    81  74  79 SW8       29.89F

$$

INZ030>032-037>040-046>048-054>057-064-065-071800-
CENTRAL INDIANA

CITY           SKY/WX    TMP DP  RH WIND       PRES   REMARKS
ANDERSON       LGT RAIN  75  72  88 SW12      29.93R
CP ATTERBURY + CLOUDY    75  70  83 SW12G18   29.93S
COLUMBUS       CLOUDY    77  70  78 SW12      29.94
FRANKFORT +    LGT RAIN N/A N/A N/A MISG      29.94R
GREENWOOD *+   CLOUDY    70  66  88 NW7G20    29.95R VSB 1/4
INDIANAPOLIS   TSTM      69  66  90 SE6       29.93S FOG
-EAGLE CREEK   RAIN      70  69  97 SE3       29.92R FOG
KOKOMO *+      CLOUDY    75  70  83 NW15G21   29.91R
MARION +       CLOUDY    74  71  92 W6        29.93R
MT COMFORT *+  CLOUDY    73 N/A N/A W15G29    29.95R
SHELBYVILLE    CLOUDY    78  72  81 S12       29.93R
ZIONSVILLE +   TSTM      71  67  88 S5        29.93R

$$

INZ033-034-041-042-049-050-058-059-071800-
EAST CENTRAL INDIANA

CITY           SKY/WX    TMP DP  RH WIND       PRES   REMARKS
MUNCIE         TSTM      74  72  93 NW10      29.93R VSB 3/4

$$

INZ060-061-067>069-081>083-085>088-071800-
SOUTHWEST INDIANA

CITY           SKY/WX    TMP DP  RH WIND       PRES   REMARKS
EVANSVILLE     HVY RAIN  74  71  91 SW14      29.99R FOG
HUNTINGBURG *+ CLOUDY    75  72  88 SW12      29.97S
WASHINGTON +   CLOUDY    80  71  74 SW15      29.93S

$$

INZ062-063-066-070>080-084-089>092-071800-
SOUTH CENTRAL AND SOUTHEAST INDIANA

CITY           SKY/WX    TMP DP  RH WIND       PRES   REMARKS
BLOOMINGTON    CLOUDY    76  72  87 SW12      29.93F
MADISON *+     CLOUDY    73  70  88 SW10G21   30.00S
NORTH VERNON + CLOUDY    75  75 100 SW14G21   29.96F
SEYMOUR +      CLOUDY    79  73  83 S14       29.95S

$$



USA.gov is the U.S. government's official web portal to all federal, state and local government web resources and services.